TimeCST,TemperatureF,Dew PointF,Humidity,Sea Level PressureIn,VisibilityMPH,Wind Direction,Wind SpeedMPH,Gust SpeedMPH,PrecipitationIn,Events,Conditions,WindDirDegrees,DateUTC
12:15 AM,14.0,6.8,73,30.65,10.0,North,20.7,26.5,N/A,,Scattered Clouds,10,2013-11-23 06:15:00
12:35 AM,12.2,8.6,85,30.66,10.0,North,16.1,23.0,N/A,,Partly Cloudy,10,2013-11-23 06:35:00
12:55 AM,12.2,10.4,92,30.66,10.0,North,18.4,26.5,N/A,,Clear,360,2013-11-23 06:55:00
1:15 AM,10.4,5.0,79,30.66,10.0,North,15.0,21.9,N/A,,Clear,360,2013-11-23 07:15:00
1:35 AM,10.4,-9999,N/A,30.67,10.0,North,12.7,19.6,N/A,,Clear,350,2013-11-23 07:35:00
1:55 AM,10.4,6.8,85,30.69,10.0,North,12.7,-,N/A,,Partly Cloudy,360,2013-11-23 07:55:00
2:15 AM,8.6,8.6,100,30.69,10.0,North,10.4,-,N/A,,Clear,350,2013-11-23 08:15:00
2:35 AM,8.6,-9999,N/A,30.71,10.0,North,12.7,18.4,N/A,,Clear,350,2013-11-23 08:35:00
2:55 AM,8.6,-9999,N/A,30.72,10.0,NNW,11.5,-,N/A,,Clear,340,2013-11-23 08:55:00
3:15 AM,8.6,-9999,N/A,30.73,10.0,NNW,12.7,-,N/A,,Clear,340,2013-11-23 09:15:00
3:35 AM,8.6,8.6,100,30.73,10.0,NNW,12.7,-,N/A,,Clear,340,2013-11-23 09:35:00
3:55 AM,6.8,-9999,N/A,30.74,10.0,North,13.8,-,N/A,,Clear,350,2013-11-23 09:55:00
4:15 AM,6.8,-9999,N/A,30.74,10.0,NNW,11.5,-,N/A,,Clear,340,2013-11-23 10:15:00
4:35 AM,6.8,-9999,N/A,30.75,10.0,NNW,13.8,-,N/A,,Clear,340,2013-11-23 10:35:00
4:55 AM,6.8,-9999,N/A,30.76,10.0,NNW,12.7,18.4,N/A,,Clear,340,2013-11-23 10:55:00
5:15 AM,6.8,-9999,N/A,30.77,10.0,NNW,10.4,-,N/A,,Clear,330,2013-11-23 11:15:00
5:35 AM,5.0,-9999,N/A,30.77,10.0,NNW,11.5,-,N/A,,Clear,330,2013-11-23 11:35:00
5:55 AM,5.0,-9999,N/A,30.78,10.0,NNW,11.5,-,N/A,,Clear,330,2013-11-23 11:55:00
6:15 AM,-9999,-9999,N/A,30.79,-9999.0,NNW,13.8,-,N/A,,Unknown,330,2013-11-23 12:15:00
6:35 AM,5.0,-9999,N/A,30.79,10.0,NNW,12.7,-,N/A,,Clear,330,2013-11-23 12:35:00
6:55 AM,5.0,-9999,N/A,30.80,10.0,NNW,11.5,-,N/A,,Clear,330,2013-11-23 12:55:00
7:15 AM,3.2,-9999,N/A,30.80,10.0,NNW,9.2,-,N/A,,Clear,330,2013-11-23 13:15:00
7:35 AM,3.2,-9999,N/A,30.81,10.0,NNW,9.2,-,N/A,,Clear,330,2013-11-23 13:35:00
7:55 AM,3.2,-9999,N/A,30.82,10.0,NW,9.2,-,N/A,,Clear,320,2013-11-23 13:55:00
8:15 AM,5.0,-9999,N/A,30.82,10.0,NNW,11.5,-,N/A,,Clear,330,2013-11-23 14:15:00
8:35 AM,5.0,-9999,N/A,30.82,10.0,NNW,12.7,18.4,N/A,,Clear,330,2013-11-23 14:35:00
8:55 AM,6.8,-9999,N/A,30.83,10.0,NNW,12.7,18.4,N/A,,Clear,340,2013-11-23 14:55:00
9:15 AM,6.8,-9999,N/A,30.83,10.0,North,16.1,-,N/A,,Clear,350,2013-11-23 15:15:00
9:35 AM,8.6,-9999,N/A,30.84,10.0,NNW,12.7,-,N/A,,Clear,340,2013-11-23 15:35:00
9:55 AM,8.6,-9999,N/A,30.84,10.0,North,13.8,-,N/A,,Clear,350,2013-11-23 15:55:00
10:15 AM,10.4,-9999,N/A,30.84,10.0,North,11.5,-,N/A,,Clear,350,2013-11-23 16:15:00
10:35 AM,10.4,-9999,N/A,30.84,10.0,North,10.4,16.1,N/A,,Clear,360,2013-11-23 16:35:00
10:55 AM,12.2,-9999,N/A,30.83,10.0,NNE,10.4,-,N/A,,Partly Cloudy,20,2013-11-23 16:55:00
11:15 AM,14.0,-9999,N/A,30.83,10.0,NNW,6.9,-,N/A,,Partly Cloudy,330,2013-11-23 17:15:00
11:35 AM,14.0,-9999,N/A,30.82,10.0,North,8.1,-,N/A,,Partly Cloudy,360,2013-11-23 17:35:00
11:55 AM,15.8,-9999,N/A,30.82,10.0,North,6.9,-,N/A,,Clear,360,2013-11-23 17:55:00
12:15 PM,15.8,-9999,N/A,30.81,10.0,NNW,8.1,-,N/A,,Clear,340,2013-11-23 18:15:00
12:35 PM,15.8,-9999,N/A,30.81,10.0,Variable,6.9,-,N/A,,Clear,0,2013-11-23 18:35:00
12:55 PM,17.6,-9999,N/A,30.80,10.0,Variable,6.9,-,N/A,,Clear,0,2013-11-23 18:55:00
1:15 PM,17.6,-9999,N/A,30.80,10.0,Variable,6.9,-,N/A,,Clear,0,2013-11-23 19:15:00
1:35 PM,17.6,-9999,N/A,30.79,10.0,NNW,6.9,-,N/A,,Clear,340,2013-11-23 19:35:00
1:55 PM,17.6,-9999,N/A,30.79,10.0,North,5.8,-,N/A,,Clear,10,2013-11-23 19:55:00
2:15 PM,17.6,-9999,N/A,30.78,10.0,Variable,5.8,-,N/A,,Clear,0,2013-11-23 20:15:00
2:35 PM,17.6,5.0,58,30.78,10.0,NNW,6.9,-,N/A,,Clear,340,2013-11-23 20:35:00
2:55 PM,17.6,5.0,58,30.77,10.0,NNW,5.8,11.5,N/A,,Clear,340,2013-11-23 20:55:00
3:15 PM,17.6,1.4,49,30.76,10.0,Variable,3.5,-,N/A,,Clear,0,2013-11-23 21:15:00
3:35 PM,17.6,1.4,49,30.76,10.0,NNW,5.8,-,N/A,,Clear,330,2013-11-23 21:35:00
3:55 PM,17.6,1.4,49,30.76,10.0,Calm,Calm,-,N/A,,Clear,0,2013-11-23 21:55:00
4:15 PM,17.6,14.0,86,30.76,10.0,NW,3.5,-,N/A,,Clear,310,2013-11-23 22:15:00
4:35 PM,15.8,14.0,93,30.75,10.0,Calm,Calm,-,N/A,,Clear,0,2013-11-23 22:35:00
4:55 PM,15.8,15.8,100,30.75,10.0,Calm,Calm,-,N/A,,Clear,0,2013-11-23 22:55:00
5:15 PM,14.0,14.0,100,30.75,9.0,West,4.6,-,N/A,,Clear,280,2013-11-23 23:15:00
5:35 PM,14.0,3.2,62,30.74,10.0,West,4.6,-,N/A,,Clear,280,2013-11-23 23:35:00
5:55 PM,12.2,5.0,73,30.74,10.0,Calm,Calm,-,N/A,,Clear,0,2013-11-23 23:55:00
6:15 PM,6.8,6.8,100,30.73,9.0,Calm,Calm,-,N/A,,Clear,0,2013-11-24 00:15:00
6:35 PM,10.4,10.4,100,30.73,10.0,Calm,Calm,-,N/A,,Clear,0,2013-11-24 00:35:00
6:55 PM,8.6,3.2,79,30.72,10.0,SSE,3.5,-,N/A,,Clear,160,2013-11-24 00:55:00
7:15 PM,6.8,5.0,92,30.72,10.0,SW,3.5,-,N/A,,Clear,220,2013-11-24 01:15:00
7:35 PM,6.8,1.4,79,30.72,10.0,WSW,4.6,-,N/A,,Clear,240,2013-11-24 01:35:00
7:55 PM,6.8,-9999,N/A,30.72,10.0,SW,4.6,-,N/A,,Clear,220,2013-11-24 01:55:00
8:15 PM,6.8,3.2,85,30.71,10.0,Calm,Calm,-,N/A,,Clear,0,2013-11-24 02:15:00
8:35 PM,6.8,1.4,79,30.71,10.0,Calm,Calm,-,N/A,,Clear,0,2013-11-24 02:35:00
8:55 PM,5.0,-0.4,78,30.71,10.0,Calm,Calm,-,N/A,,Clear,0,2013-11-24 02:55:00
9:15 PM,5.0,-2.2,72,30.71,10.0,Calm,Calm,-,N/A,,Clear,0,2013-11-24 03:15:00
9:35 PM,5.0,1.4,85,30.71,10.0,Calm,Calm,-,N/A,,Clear,0,2013-11-24 03:35:00
9:55 PM,3.2,1.4,92,30.70,10.0,Calm,Calm,-,N/A,,Clear,0,2013-11-24 03:55:00
10:15 PM,5.0,1.4,85,30.70,10.0,Calm,Calm,-,N/A,,Clear,0,2013-11-24 04:15:00
10:35 PM,3.2,1.4,92,30.69,10.0,Calm,Calm,-,N/A,,Clear,0,2013-11-24 04:35:00
10:55 PM,5.0,1.4,85,30.68,10.0,SE,3.5,-,N/A,,Clear,140,2013-11-24 04:55:00
11:15 PM,5.0,-0.4,78,30.68,10.0,SSE,5.8,-,N/A,,Clear,160,2013-11-24 05:15:00
11:35 PM,6.8,1.4,79,30.67,10.0,South,4.6,-,N/A,,Clear,170,2013-11-24 05:35:00
11:55 PM,6.8,1.4,79,30.66,10.0,South,5.8,-,N/A,,Clear,170,2013-11-24 05:55:00